• Join FlightAware (Why Join?)
  • Login
  • US Flag 
11:37PM EDT


 

Airport Tracker/Info


-or-


 

Live Flight TrackerFlight Track Log ✈ SKW4664 ✈ 27-Apr-2013 ✈ KATW - KMSP

Flight Track Log - Related Links

Times and Time Zones

All times are in EDT time to prevent confusion due to time zone crossing. See the SKW4664 flight status page for this flight to view local times or setup timezone preferences in your user account.

Time Position Orientation Groundspeed Altitude Reporting Facility
EDT Latitude Longitude Course Direction KTS MPH feet Rate Location/Type
03:47PM 44.2575 -88.7011 291° West 245 282 7,600  Level Minneapolis Center
03:48PM 44.3325 -88.9019 288° West  Level FlightAware Approximate
03:49PM 44.3622 -89.0307 288° West  Level FlightAware Approximate
03:49PM 44.2833 -88.8206 287° West 268 308 11,300  Level Minneapolis Center
03:50PM 44.3920 -89.1596 288° West  Level FlightAware Approximate
03:50PM 44.3094 -88.9269 289° West 282 325 13,400  Level Minneapolis Center
03:51PM 44.4177 -89.2710 288° West  Level FlightAware Approximate
03:51PM 44.3372 -89.0406 289° West 299 344 16,100  Level Minneapolis Center
03:52PM 44.4436 -89.3823 288° West  Level FlightAware Approximate
03:52PM 44.3658 -89.1553 289° West 311 358 17,800  Level Minneapolis Center
03:53PM 44.3914 -89.2725 287° West 313 360 19,800 1,020 Climbing Minneapolis Center
03:54PM 44.4214 -89.3919 289° West 322 371 20,000 60 Climbing Minneapolis Center
03:55PM 44.4514 -89.5183 288° West 337 388 20,000  Level Minneapolis Center
03:56PM 44.4814 -89.6447 288° West 341 392 20,000  Level Minneapolis Center
03:57PM 44.5214 -89.8131 288° West 343 395 20,000  Level Minneapolis Center
03:58PM 44.5514 -89.9392 288° West 342 394 20,000  Level Minneapolis Center
03:59PM 44.5817 -90.0664 289° West 344 396 20,000  Level Minneapolis Center
04:00PM 44.6142 -90.2108 288° West 377 434 20,000  Level Minneapolis Center
04:01PM 44.6500 -90.3644 288° West 409 471 20,000  Level Minneapolis Center
04:02PM 44.6875 -90.5311 288° West 388 447 20,000  Level Minneapolis Center
04:03PM 44.7194 -90.6700 288° West 380 437 20,000  Level Minneapolis Center
04:04PM 44.7533 -90.8156 288° West 389 448 20,000  Level Minneapolis Center
04:05PM 44.7853 -90.9647 287° West 397 457 20,000  Level Minneapolis Center
04:06PM 44.8186 -91.1114 288° West 396 456 20,000  Level Minneapolis Center
04:07PM 44.8486 -91.2592 286° West 395 455 20,000  Level Minneapolis Center
04:08PM 44.8867 -91.4319 287° West 403 464 20,000  Level Minneapolis Center
04:09PM 44.9192 -91.5875 286° West 397 457 20,000  Level Minneapolis Center
04:10PM 44.9464 -91.7364 285° West 391 450 20,000 -660 Level Minneapolis Center
04:11PM 44.9753 -91.8853 285° West 392 451 18,700 -2,400 Descending Minneapolis Center
04:12PM 45.0014 -92.0261 285° West 373 429 15,200 -3,420 Descending Minneapolis Center
04:13PM 45.0267 -92.1603 285° West 356 410 11,800 -2,040 Descending Minneapolis Center
04:14PM 45.0478 -92.2917 283° West 346 398 11,000 -420 Descending Minneapolis Center
04:15PM 45.0281 -92.4289 259° West 360 414 11,000  Level Minneapolis Center
04:16PM 45.0061 -92.5669 257° West 362 417 11,000  Level Minneapolis Center
04:17PM 44.9789 -92.7331 257° West 364 419 11,000  Level Minneapolis Center
04:18PM 44.9614 -92.8406 257° West 357 411 11,000 -360 Level Minneapolis Center
04:20PM 44.9389 -92.9800 257° West 296 341 10,200 -1,320 Descending Minneapolis Center
04:21PM 44.9419 -93.0958 272° West 268 308 8,100 -1,380 Descending Minneapolis Center
04:22PM 44.9925 -93.1986 305° West 272 313 7,400 -1,080 Descending Minneapolis Center
04:23PM 45.0361 -93.2847 306° West 273 314 6,000 -1,380 Descending Minneapolis Center
04:24PM 45.0250 -93.3714 260° West 236 272 4,600 -1,380 Descending Minneapolis Center